DJ2DS-13 Weather Reports


time (UTC)temp
F
wind
direction
speed
knots
gust
knots
rain 1hr
in
rain 24hr
in
rain mn
in
humidity
%
barometer
mb
20260507055943 46 35 0.0 1.7 0.00 0.00 0.00 92 1013.5
20260507055443 46 23 0.0 0.9 0.00 0.00 0.00 92 1013.4
20260507054942 46 8 0.0 0.9 0.00 0.00 0.00 92 1013.3
20260507054443 45 1 0.0 1.7 0.00 0.00 0.00 92 1013.2
20260507053944 45 1 0.0 1.7 0.00 0.00 0.00 92 1013.2
20260507053442 44 0 0.0 0.0 0.00 0.00 0.00 92 1013.2
20260507052942 44 0 0.0 0.0 0.00 0.00 0.00 92 1013.1
20260507052442 44 0 0.0 0.0 0.00 0.00 0.00 92 1013.0
20260507051942 43 0 0.0 0.0 0.00 0.00 0.00 92 1013.0
20260507051443 42 0 0.0 0.0 0.00 0.00 0.00 92 1013.0
20260507050942 41 0 0.0 0.0 0.00 0.00 0.00 92 1013.0
20260507050442 41 0 0.0 0.0 0.00 0.00 0.00 92 1013.0
20260507045942 40 0 0.0 0.0 0.00 0.00 0.00 92 1012.8
20260507045440 40 0 0.0 0.0 0.00 0.00 0.00 91 1012.7
20260507044941 39 0 0.0 0.0 0.00 0.00 0.00 91 1012.7
20260507044440 39 0 0.0 0.0 0.00 0.00 0.00 91 1012.7
20260507043940 39 0 0.0 0.0 0.00 0.00 0.00 91 1012.6
20260507043438 39 0 0.0 0.0 0.00 0.00 0.00 91 1012.5
20260507042939 38 0 0.0 0.0 0.00 0.00 0.00 91 1012.5
20260507042439 39 0 0.0 0.0 0.00 0.00 0.00 91 1012.4
20260507041940 39 0 0.0 0.0 0.00 0.00 0.00 91 1012.4
20260507041439 39 0 0.0 0.0 0.00 0.00 0.00 91 1012.3
20260507040938 39 0 0.0 0.0 0.00 0.00 0.00 91 1012.3
20260507040438 39 0 0.0 0.0 0.00 0.00 0.00 91 1012.2
20260507035938 40 0 0.0 0.0 0.00 0.00 0.00 91 1012.2
20260507035437 40 0 0.0 0.0 0.00 0.00 0.00 91 1012.2
20260507034939 40 0 0.0 0.0 0.00 0.00 0.00 91 1012.1
20260507034437 40 0 0.0 0.0 0.00 0.00 0.00 91 1012.1
20260507033935 40 0 0.0 0.0 0.00 0.00 0.00 91 1012.1
20260507033434 41 0 0.0 0.0 0.00 0.00 0.00 91 1012.1
20260507032934 41 0 0.0 0.0 0.00 0.00 0.00 91 1012.0
20260507032436 41 0 0.0 0.0 0.00 0.00 0.00 91 1012.0
20260507031934 41 0 0.0 0.0 0.00 0.00 0.00 91 1011.9
20260507031434 41 345 0.0 0.0 0.00 0.00 0.00 91 1012.0
20260507030933 41 345 0.0 0.0 0.00 0.00 0.00 91 1012.0
20260507030433 42 345 0.0 0.0 0.00 0.00 0.00 91 1012.0
20260507025934 42 345 0.0 0.0 0.00 0.00 0.00 90 1011.9
20260507025433 42 345 0.0 0.0 0.00 0.00 0.00 90 1011.9
20260507024933 42 345 0.0 0.0 0.00 0.00 0.00 90 1011.8
20260507024433 42 345 0.0 0.0 0.00 0.00 0.00 90 1011.8
20260507023934 42 345 0.0 0.0 0.00 0.00 0.00 90 1011.8
20260507023432 42 345 0.0 0.0 0.00 0.00 0.00 90 1011.7
20260507022932 42 345 0.0 1.7 0.00 0.00 0.00 90 1011.7
20260507022432 42 345 0.0 1.7 0.00 0.00 0.00 90 1011.7
20260507021931 43 0 0.0 1.7 0.00 0.00 0.00 90 1011.6
20260507021434 43 0 0.9 3.5 0.00 0.00 0.00 90 1011.5
20260507020930 43 358 0.9 3.5 0.00 0.00 0.00 90 1011.5
20260507020430 44 0 1.7 3.5 0.00 0.00 0.00 90 1011.5
20260507015931 44 347 2.6 4.3 0.00 0.00 0.00 90 1011.5
20260507015430 44 351 2.6 4.3 0.00 0.00 0.00 90 1011.5
20260507014931 44 354 2.6 4.3 0.00 0.00 0.00 90 1011.4
20260507014430 44 330 1.7 4.3 0.00 0.00 0.00 90 1011.5
20260507013929 44 331 2.6 3.5 0.00 0.00 0.00 90 1011.4
20260507013429 45 343 1.7 2.6 0.00 0.00 0.00 90 1011.4
20260507012931 45 348 0.9 3.5 0.00 0.00 0.00 90 1011.3
20260507012429 45 0 1.7 3.5 0.00 0.00 0.00 90 1011.3
20260507011929 45 0 1.7 2.6 0.00 0.00 0.00 89 1011.2
20260507011426 45 357 0.0 1.7 0.00 0.00 0.00 89 1011.3
20260507010926 45 0 0.9 3.5 0.00 0.00 0.00 89 1011.3
20260507010428 46 23 1.7 5.2 0.00 0.00 0.00 89 1011.2
20260507005926 46 0 1.7 6.1 0.00 0.00 0.00 89 1011.2
20260507005425 46 327 2.6 6.1 0.00 0.00 0.00 89 1011.2
20260507004926 46 358 3.5 6.1 0.00 0.00 0.00 89 1011.1
20260507004423 46 11 3.5 6.1 0.00 0.00 0.00 89 1011.1
20260507003923 46 0 3.5 6.1 0.00 0.00 0.00 89 1011.1
20260507003421 46 334 2.6 6.1 0.00 0.00 0.00 89 1011.1
20260507002921 46 0 3.5 6.1 0.00 0.00 0.00 89 1011.0
20260507002421 45 0 4.3 7.8 0.00 0.00 0.00 89 1011.0
20260507001919 45 354 3.5 7.8 0.00 0.00 0.00 88 1010.9
20260507001418 45 344 3.5 6.1 0.00 0.00 0.00 88 1010.9
20260507000919 45 350 3.5 6.1 0.00 0.00 0.00 88 1011.1
20260507000420 45 343 2.6 6.1 0.00 0.00 0.00 88 1011.1
20260506235918 45 0 3.5 6.1 0.00 0.00 0.00 88 1011.0
20260506235418 45 358 3.5 5.2 0.00 0.00 0.00 88 1011.1
20260506234917 45 351 3.5 5.2 0.00 0.00 0.00 88 1011.1
20260506234417 45 344 3.5 6.1 0.00 0.00 0.00 88 1011.2
20260506233916 45 7 3.5 6.1 0.00 0.00 0.00 88 1011.1
20260506233414 45 7 3.5 6.1 0.00 0.00 0.00 88 1011.1
20260506232914 45 355 2.6 6.1 0.00 0.00 0.00 87 1011.1
20260506232413 45 334 3.5 6.1 0.00 0.00 0.00 87 1011.0
20260506231914 45 0 3.5 6.1 0.00 0.00 0.00 87 1011.0
20260506231414 45 351 4.3 6.1 0.00 0.00 0.00 87 1011.1
20260506230911 45 354 2.6 5.2 0.00 0.00 0.00 87 1011.1
20260506230411 45 355 2.6 5.2 0.00 0.00 0.00 87 1011.0
20260506225911 45 340 2.6 5.2 0.00 0.00 0.00 87 1011.1
20260506225409 45 331 2.6 5.2 0.00 0.00 0.00 87 1011.1
20260506224910 45 0 3.5 4.3 0.00 0.00 0.00 87 1011.1
20260506224411 45 0 2.6 4.3 0.00 0.00 0.00 87 1011.1
20260506223909 45 0 2.6 3.5 0.00 0.00 0.00 87 1011.2
20260506223408 45 0 1.7 4.3 0.00 0.00 0.00 87 1011.1
20260506222908 45 358 2.6 5.2 0.00 0.00 0.00 87 1011.0
20260506222404 45 0 2.6 5.2 0.00 0.00 0.00 86 1011.0
20260506221906 45 338 3.5 5.2 0.00 0.00 0.00 86 1010.9
20260506221406 45 330 2.6 4.3 0.00 0.00 0.00 86 1010.9
20260506220903 45 357 2.6 4.3 0.00 0.00 0.00 86 1011.0
20260506220404 45 353 2.6 4.3 0.00 0.00 0.00 86 1011.0
20260506215903 45 337 1.7 4.3 0.00 0.00 0.00 86 1010.9
20260506215403 45 0 1.7 5.2 0.00 0.00 0.00 85 1010.9
20260506214902 46 345 1.7 5.2 0.00 0.00 0.00 85 1010.8
20260506214402 46 0 1.7 4.3 0.00 0.00 0.00 85 1010.9
20260506213859 46 0 1.7 5.2 0.00 0.00 0.00 85 1010.8
20260506213359 46 0 1.7 5.2 0.00 0.00 0.00 85 1010.7
20260506212858 46 24 1.7 5.2 0.00 0.00 0.00 85 1010.8
20260506212400 46 0 1.7 5.2 0.00 0.00 0.00 85 1010.7
20260506211857 46 27 1.7 8.7 0.00 0.00 0.00 85 1010.7
20260506211357 46 32 1.7 8.7 0.00 0.00 0.00 85 1010.6
20260506210857 46 357 1.7 8.7 0.00 0.00 0.00 85 1010.7
20260506210357 46 28 2.6 9.6 0.00 0.00 0.00 85 1010.6
20260506205854 47 66 2.6 9.6 0.00 0.00 0.00 85 1010.5
20260506205352 47 338 3.5 7.8 0.00 0.00 0.00 85 1010.6
20260506204853 47 24 3.5 7.8 0.00 0.00 0.00 85 1010.5
20260506204354 47 327 3.5 7.8 0.00 0.00 0.00 85 1010.5
20260506203853 47 25 2.6 6.1 0.00 0.00 0.00 85 1010.6
20260506203351 47 3 3.5 7.8 0.00 0.00 0.00 85 1010.5
20260506202853 47 0 2.6 7.8 0.00 0.00 0.00 85 1010.5
20260506202348 47 8 2.6 6.1 0.00 0.00 0.00 85 1010.5
20260506201850 47 0 2.6 5.2 0.00 0.00 0.00 84 1010.5
20260506201349 47 0 2.6 7.8 0.00 0.00 0.00 84 1010.6
20260506200846 47 13 1.7 7.8 0.00 0.00 0.00 84 1010.4
20260506200348 47 0 2.6 7.8 0.00 0.00 0.00 84 1010.3
20260506195848 47 20 2.6 8.7 0.00 0.00 0.00 83 1010.3
20260506195344 48 23 3.5 8.7 0.00 0.00 0.00 83 1010.3
20260506194847 48 3 2.6 7.8 0.00 0.00 0.00 83 1010.3
20260506194346 48 7 1.7 6.1 0.00 0.00 0.00 83 1010.3
20260506193843 48 351 2.6 6.1 0.00 0.00 0.00 82 1010.3
20260506193341 48 355 1.7 5.2 0.00 0.00 0.00 82 1010.2
20260506192840 48 354 1.7 5.2 0.00 0.00 0.00 81 1010.2
20260506192339 48 20 1.7 6.1 0.00 0.00 0.00 81 1010.1
20260506191838 49 25 1.7 6.1 0.00 0.00 0.00 81 1010.1
20260506191336 49 13 1.7 5.2 0.00 0.00 0.00 81 1010.0
20260506190837 49 0 1.7 5.2 0.00 0.00 0.00 81 1009.9
20260506190337 49 1 1.7 8.7 0.00 0.00 0.00 80 1009.8
20260506185833 49 31 1.7 8.7 0.00 0.00 0.00 80 1009.9
20260506185335 49 0 1.7 8.7 0.00 0.00 0.00 80 1009.8
20260506184834 50 350 3.5 8.7 0.00 0.00 0.00 79 1009.7
20260506184332 50 0 2.6 6.1 0.00 0.00 0.00 79 1009.6
20260506183832 50 30 1.7 6.1 0.00 0.00 0.00 79 1009.7
20260506183333 50 16 1.7 5.2 0.00 0.00 0.00 79 1009.5
20260506182831 50 21 1.7 6.1 0.00 0.00 0.00 79 1009.5
20260506182331 51 350 2.6 6.1 0.00 0.00 0.00 79 1009.4
20260506181830 50 0 1.7 11.3 0.00 0.00 0.00 79 1009.4
20260506181328 51 21 3.5 11.3 0.00 0.00 0.00 78 1009.4
20260506180830 51 6 3.5 10.4 0.00 0.00 0.00 78 1009.3
20260506180330 51 6 2.6 10.4 0.00 0.00 0.00 77 1009.3
20260506175829 51 355 2.6 6.1 0.00 0.00 0.00 77 1009.2
20260506175329 51 0 2.6 9.6 0.00 0.00 0.00 76 1009.2
20260506174829 51 1 3.5 9.6 0.00 0.00 0.00 77 1009.2
20260506174328 51 1 3.5 8.7 0.00 0.00 0.00 76 1009.1
20260506173829 51 79 3.5 8.7 0.00 0.00 0.00 76 1009.0
20260506173328 52 30 2.6 10.4 0.00 0.00 0.00 75 1009.0
20260506172827 52 8 2.6 10.4 0.00 0.00 0.00 75 1009.0
20260506172325 53 55 5.2 9.6 0.00 0.00 0.00 73 1009.0
20260506171826 53 35 3.5 10.4 0.00 0.00 0.00 74 1008.9
20260506171326 53 25 3.5 10.4 0.00 0.00 0.00 72 1008.9
20260506170820 54 45 3.5 7.8 0.00 0.00 0.00 73 1009.0
20260506170321 54 0 2.6 7.8 0.00 0.00 0.00 72 1008.9
20260506165820 54 358 3.5 8.7 0.00 0.00 0.00 72 1008.9
20260506165319 54 355 2.6 12.2 0.00 0.00 0.00 71 1008.8
20260506164819 55 35 3.5 12.2 0.00 0.00 0.00 72 1008.9
20260506164318 55 10 3.5 7.8 0.00 0.00 0.00 71 1008.7
20260506163815 54 18 1.7 7.8 0.00 0.00 0.00 73 1008.8
20260506163315 54 28 3.5 7.8 0.00 0.00 0.00 72 1008.9
20260506162813 54 7 1.7 6.1 0.00 0.00 0.00 72 1008.8
20260506162315 54 31 1.7 8.7 0.00 0.00 0.00 71 1008.8
20260506161812 54 23 2.6 8.7 0.00 0.00 0.00 71 1008.8
20260506161313 54 13 2.6 7.8 0.00 0.00 0.00 71 1008.9
20260506160812 54 10 3.5 7.8 0.00 0.00 0.00 71 1008.9
20260506160311 54 0 3.5 8.7 0.00 0.00 0.00 71 1008.9
20260506155815 54 10 4.3 8.7 0.00 0.00 0.00 71 1009.0
20260506155310 54 21 3.5 9.6 0.00 0.00 0.00 72 1008.8
20260506154817 54 25 2.6 10.4 0.00 0.00 0.00 71 1008.9
20260506154309 54 23 2.6 10.4 0.00 0.00 0.00 72 1008.9
20260506153810 54 8 2.6 8.7 0.00 0.00 0.00 72 1009.0
20260506153307 54 21 2.6 8.7 0.00 0.00 0.00 73 1008.9
20260506152805 54 0 2.6 8.7 0.00 0.00 0.00 72 1008.9
20260506152306 54 344 3.5 6.1 0.00 0.00 0.00 73 1008.9
20260506151806 54 35 2.6 5.2 0.00 0.00 0.00 75 1008.8
20260506151306 54 348 2.6 6.1 0.00 0.00 0.00 74 1008.9
20260506150807 54 27 2.6 7.8 0.00 0.00 0.00 74 1008.8
20260506150305 54 21 3.5 7.8 0.00 0.00 0.00 74 1008.9
20260506145805 54 345 3.5 8.7 0.00 0.00 0.00 75 1009.0
20260506145306 54 39 4.3 8.7 0.00 0.00 0.00 75 1009.0
20260506144805 54 334 2.6 9.6 0.00 0.00 0.00 75 1009.0
20260506144306 54 343 3.5 9.6 0.00 0.00 0.00 75 1008.9
20260506143805 55 31 3.5 8.7 0.00 0.00 0.00 76 1008.9
20260506143305 55 0 3.5 8.7 0.00 0.00 0.00 75 1008.9
20260506142805 55 0 3.5 7.8 0.00 0.00 0.00 76 1009.0
20260506142306 55 18 2.6 10.4 0.00 0.00 0.00 75 1008.9
20260506141804 55 51 2.6 10.4 0.00 0.00 0.00 76 1008.9
20260506141303 55 334 3.5 6.1 0.00 0.00 0.00 75 1009.0
20260506140804 55 20 3.5 6.1 0.00 0.00 0.00 75 1008.9
20260506140303 55 16 2.6 6.1 0.00 0.00 0.00 75 1008.8
20260506135803 55 8 2.6 6.1 0.00 0.00 0.00 75 1008.8
20260506135305 55 8 3.5 9.6 0.00 0.00 0.00 75 1008.8
20260506134800 55 28 3.5 9.6 0.00 0.00 0.00 75 1008.9
20260506134259 55 27 2.6 5.2 0.00 0.00 0.00 76 1008.8
20260506133801 55 18 3.5 5.2 0.00 0.00 0.00 74 1008.8
20260506133259 55 71 2.6 7.8 0.00 0.00 0.00 75 1008.8
20260506132752 55 28 3.5 8.7 0.00 0.00 0.00 76 1008.8
20260506132248 55 0 3.5 11.3 0.00 0.00 0.00 74 1008.8
20260506131748 56 17 3.5 11.3 0.00 0.00 0.00 74 1008.8
20260506131248 56 341 3.5 7.8 0.00 0.00 0.00 71 1008.8
20260506130748 56 7 2.6 7.8 0.00 0.00 0.00 70 1008.7
20260506130249 57 27 3.5 7.8 0.00 0.00 0.00 71 1008.6
20260506125749 57 330 3.5 8.7 0.00 0.00 0.00 71 1008.7
20260506125246 57 34 3.5 8.7 0.00 0.00 0.00 71 1008.7
20260506124746 57 27 2.6 7.8 0.00 0.00 0.00 70 1008.6
20260506124247 57 0 2.6 4.3 0.00 0.00 0.00 69 1008.6
20260506123744 57 11 2.6 5.2 0.00 0.00 0.00 67 1008.6
20260506123245 56 23 3.5 7.8 0.00 0.00 0.00 67 1008.6
20260506122744 57 17 3.5 10.4 0.00 0.00 0.00 66 1008.5
20260506122244 57 48 4.3 10.4 0.00 0.00 0.00 67 1008.5
20260506121744 56 14 2.6 6.1 0.00 0.00 0.00 66 1008.5
20260506121243 56 45 3.5 6.1 0.00 0.00 0.00 67 1008.5
20260506120742 56 56 3.5 6.1 0.00 0.00 0.00 66 1008.4
20260506120243 56 21 3.5 5.2 0.00 0.00 0.00 68 1008.5
20260506115742 56 24 3.5 8.7 0.00 0.00 0.00 67 1008.5
20260506115244 56 25 4.3 8.7 0.00 0.00 0.00 65 1008.4
20260506114742 57 42 3.5 5.2 0.00 0.00 0.00 66 1008.5
20260506114243 57 25 2.6 6.1 0.00 0.00 0.00 66 1008.4
20260506113751 57 47 3.5 6.1 0.00 0.00 0.00 66 1008.5
20260506113249 56 47 2.6 5.2 0.00 0.00 0.00 65 1008.5
20260506112750 56 13 3.5 8.7 0.00 0.00 0.00 66 1008.4
20260506112248 56 45 4.3 8.7 0.00 0.00 0.00 66 1008.5
20260506111746 56 38 2.6 6.1 0.00 0.00 0.00 66 1008.4
20260506111245 56 24 4.3 7.8 0.00 0.00 0.00 68 1008.3
20260506110745 56 14 3.5 7.8 0.00 0.00 0.00 67 1008.4
20260506110241 56 39 3.5 9.6 0.00 0.00 0.00 66 1008.4
20260506105742 56 18 3.5 9.6 0.00 0.00 0.00 67 1008.3
20260506105241 56 11 2.6 9.6 0.00 0.00 0.00 69 1008.3
20260506104741 56 10 3.5 9.6 0.00 0.00 0.00 67 1008.3
20260506104242 56 44 4.3 10.4 0.00 0.00 0.00 68 1008.3
20260506103740 56 86 3.5 10.4 0.00 0.00 0.00 68 1008.3
20260506103241 56 3 3.5 8.7 0.00 0.00 0.00 68 1008.2
20260506102740 56 44 4.3 12.2 0.00 0.00 0.00 68 1008.3
20260506102240 56 44 3.5 12.2 0.00 0.00 0.00 67 1008.2
20260506101740 56 62 7.0 12.2 0.00 0.00 0.00 65 1008.2
20260506101240 56 51 3.5 12.2 0.00 0.00 0.00 68 1008.2
20260506100741 56 37 5.2 12.2 0.00 0.00 0.00 67 1008.1
20260506100240 56 0 5.2 13.0 0.00 0.00 0.00 67 1008.2
20260506095740 55 63 6.1 13.0 0.00 0.00 0.00 67 1008.1
20260506095240 55 23 4.3 13.0 0.00 0.00 0.00 68 1008.1
20260506094739 55 56 4.3 13.0 0.00 0.00 0.00 67 1008.2
20260506094240 55 31 5.2 11.3 0.00 0.00 0.00 68 1008.1
20260506093740 55 48 4.3 11.3 0.00 0.00 0.00 67 1008.1
20260506093241 54 39 6.1 11.3 0.00 0.00 0.00 68 1008.0
20260506092740 54 45 3.5 11.3 0.00 0.00 0.00 69 1008.1
20260506092240 54 44 5.2 11.3 0.00 0.00 0.00 70 1008.1
20260506091741 54 41 2.6 13.9 0.00 0.00 0.00 72 1008.1
20260506091240 54 20 2.6 13.9 0.00 0.00 0.00 70 1008.0
20260506090740 54 65 4.3 11.3 0.00 0.00 0.00 70 1008.0
20260506090240 54 30 2.6 8.7 0.00 0.00 0.00 72 1008.1
20260506085740 53 45 2.6 12.2 0.00 0.00 0.00 70 1008.1
20260506085240 53 3 4.3 12.2 0.00 0.00 0.00 70 1008.1
20260506084740 53 39 3.5 11.3 0.00 0.00 0.00 71 1008.1
20260506084241 53 21 3.5 11.3 0.00 0.00 0.00 72 1008.1
20260506083739 53 34 2.6 6.1 0.00 0.00 0.00 75 1008.1
20260506083240 53 0 2.6 8.7 0.00 0.00 0.00 75 1008.1
20260506082740 52 30 2.6 8.7 0.00 0.00 0.00 74 1008.1
20260506082240 52 87 1.7 5.2 0.00 0.00 0.00 75 1008.1
20260506081740 52 47 2.6 7.8 0.00 0.00 0.00 75 1008.1
20260506081240 52 32 2.6 7.8 0.00 0.00 0.00 76 1008.0
20260506080739 52 56 2.6 7.8 0.00 0.00 0.00 75 1008.1
20260506080237 52 31 1.7 12.2 0.00 0.00 0.00 77 1008.0
20260506073233 51 28 1.7 5.2 0.00 0.00 0.00 78 1007.9
20260506072730 51 51 2.6 5.2 0.00 0.00 0.00 79 1007.8
20260506072230 51 20 1.7 4.3 0.00 0.00 0.00 78 1007.8
20260506071730 51 37 2.6 9.6 0.00 0.00 0.00 79 1007.8
20260506071229 51 0 3.5 9.6 0.00 0.00 0.00 80 1007.7
20260506070728 51 37 2.6 6.1 0.00 0.00 0.00 80 1007.8
20260506070228 51 28 3.5 9.6 0.00 0.00 0.00 81 1007.7
20260506062225 50 48 2.6 5.2 0.00 0.00 0.00 88 1007.7
20260506061722 49 37 1.7 4.3 0.00 0.00 0.00 89 1007.6
20260506061221 49 23 2.6 5.2 0.00 0.00 0.00 89 1007.6
20260506060722 49 18 1.7 6.1 0.00 0.00 0.00 89 1007.6
20260506060222 49 23 2.6 6.1 0.00 0.00 0.00 90 1007.6